Location: Newark
(30.1000°N, 109.4667°E)
Time: 15:58:44
(UTC+00:00)

Vanguard 3 - Visible Passes

Search period start: 19 February 2020 00:00
Search period end: 29 February 2020 00:00
Orbit: 508 x 3263 km, 33.3° (Epoch: 18 February)

Date Brightness Start Highest point End Pass type
(mag) Time Alt. Az. Time Alt. Az. Time Alt. Az.
19 Feb 11.6 11:53:03 10° W 12:04:24 19° SW 12:16:11 10° S visible
20 Feb 11.5 10:34:24 10° W 10:48:01 31° SW 11:03:54 10° SSE visible
21 Feb 11.8 11:38:14 10° WSW 11:47:18 16° SW 11:56:56 10° SSW visible
23 Feb 12.0 11:24:47 10° WSW 11:30:23 12° SW 11:36:17 10° SSW visible
27 Feb 8.7 22:32:49 10° SSW 22:35:24 17° SSE 22:37:58 10° ESE visible
